Tracking 21470 objects as of 23-Sep-2020
HD Live streaming from Space Station
objects crossing your sky now

STARLINK-1180

Track STARLINK-1180 now!
10-day predictions
STARLINK-1180 is classified as:


NORAD ID: 45076
Int'l Code: 2020-006AJ
Perigee: 555.6 km
Apogee: 558.0 km
Inclination: 53.0 °
Period: 95.6 minutes
Semi major axis: 6927 km
RCS: Unknown
Launch date: January 29, 2020
Source: United States (US)
Launch site: AIR FORCE EASTERN TEST RANGE (AFETR)
aabbcc
Your satellite tracking list
Your tracking list is empty




NASA's NSSDC Master Catalog

Two Line Element Set (TLE):
1 45076U 20006AJ  20267.58334491 -.00020373 +00000-0 -13825-2 0  9992
2 45076 053.0003 214.0158 0001696 080.9822 261.4168 15.05594871001753
Source of the keplerian elements: AFSPC